Location: アルンシュタイン
(50.0000°N, 10.0000°E)
Time: 14:55:31
(UTC+02:00)

Envisat - Visible Passes

Search period start: 26 September 2023 00:00
Search period end: 06 October 2023 00:00
Orbit: 763 x 764 km, 98.2° (Epoch: 25 September)

Date Brightness Start Highest point End Pass type
(mag) Time Alt. Az. Time Alt. Az. Time Alt. Az.
26 Sep 4.9 04:10:55 10° NE 04:15:11 27° E 04:19:13 11° SSE visible
26 Sep 3.2 05:49:31 10° N 05:54:25 49° WNW 05:59:17 10° SW visible
27 Sep 5.7 03:35:09 10° ENE 03:37:31 13° E 03:39:52 10° ESE visible
27 Sep 3.0 05:12:10 10° NNE 05:17:18 85° ESE 05:21:38 14° SSW visible
28 Sep 4.1 04:35:09 10° NNE 04:39:58 42° E 04:43:53 15° SSE visible
28 Sep 3.8 06:14:22 10° N 06:18:51 32° WNW 06:23:18 10° SW visible
29 Sep 5.2 03:58:36 10° NE 04:02:27 21° E 04:06:08 11° SE visible
29 Sep 3.0 05:36:50 10° N 05:41:51 62° WNW 05:46:17 13° SSW visible
30 Sep 3.2 04:59:35 10° NNE 05:04:40 68° ESE 05:08:32 17° S visible
30 Sep 4.3 06:39:24 10° N 06:43:12 22° WNW 06:46:58 10° WSW visible
01 Oct 4.5 04:22:40 10° NNE 04:27:17 33° E 04:30:46 16° SSE visible
01 Oct 3.5 06:01:37 10° N 06:06:20 39° WNW 06:10:56 10° SW visible
02 Oct 5.5 03:46:26 10° NE 03:49:41 17° E 03:52:55 10° SE visible
02 Oct 2.9 05:24:10 10° NNE 05:29:16 77° WNW 05:33:10 17° SSW visible
03 Oct 3.6 04:47:01 10° NNE 04:52:01 53° E 04:55:24 20° S visible
03 Oct 4.0 06:26:33 10° N 06:30:43 26° WNW 06:34:52 10° WSW visible
04 Oct 4.8 04:10:16 10° NE 04:14:33 27° E 04:17:38 16° SE visible
04 Oct 3.2 05:48:53 10° N 05:53:47 49° WNW 05:57:47 15° SW visible
05 Oct 5.7 03:34:30 10° ENE 03:36:53 13° E 03:39:16 10° ESE visible
05 Oct 3.0 05:11:32 10° NNE 05:16:39 85° ESE 05:20:01 22° SSW visible
05 Oct 4.5 06:51:41 10° NNW 06:55:00 18° NW 06:58:19 10° W visible
